When you browse on this site, cookies collect data to enhance your experience and personalize the content and advertising you see.
Visit our Privacy Policy to learn more. By continuing to use the site, you agree to this use of cookies and data.
  • In Hungary
  • List of Countries
  • For 7 days
  • Water Temperature
  • Weather Map
  • News
  • Weather Widgets
  • user-avatar
    Login

    Hourly Weather Kuligi

    Today, 20 January, Monday

    Time Temperature Precipitation Wind Pressure Humidity
    00:00 -3°C° 0 mm 4 mps 758 mmHg 93%
    01:00 -3°C° 0 mm 4 mps 758 mmHg 93%
    02:00 -3°C° 0 mm 4 mps 758 mmHg 93%
    03:00 -2°C° 0 mm 3 mps 758 mmHg 92%
    04:00 -3°C° 0 mm 4 mps 757 mmHg 92%
    05:00 -3°C° 0 mm 4 mps 757 mmHg 92%
    06:00 -2°C° 0 mm 4 mps 757 mmHg 91%
    07:00 -3°C° 0 mm 4 mps 757 mmHg 92%
    08:00 -4°C° 0 mm 5 mps 757 mmHg 92%
    09:00 -4°C° 0 mm 5 mps 757 mmHg 91%
    10:00 -2°C° 0 mm 5 mps 756 mmHg 91%
    11:00 -3°C° 0 mm 6 mps 756 mmHg 90%
    12:00 -3°C° 0 mm 6 mps 756 mmHg 90%
    13:00 -2°C° 0 mm 6 mps 756 mmHg 90%
    14:00 -2°C° 0 mm 6 mps 756 mmHg 90%
    15:00 -1°C° 0 mm 5 mps 755 mmHg 90%
    16:00 -1°C° 0 mm 5 mps 755 mmHg 92%
    17:00 -1°C° 0 mm 5 mps 755 mmHg 94%
    18:00 -3°C° 0 mm 6 mps 755 mmHg 96%
    19:00 -2°C° 0 mm 5 mps 755 mmHg 95%
    20:00 -2°C° 0 mm 5 mps 754 mmHg 95%
    21:00 -2°C° 0 mm 5 mps 754 mmHg 94%
    22:00 -2°C° 0 mm 5 mps 754 mmHg 94%
    23:00 -2°C° 0 mm 5 mps 753 mmHg 94%

    Tomorrow, 21 January, Tuesday

    Time Temperature Precipitation Wind Pressure Humidity
    00:00 -2°C° 0 mm 5 mps 753 mmHg 94%
    01:00 -2°C° 0 mm 5 mps 753 mmHg 93%
    02:00 -2°C° 0 mm 5 mps 752 mmHg 93%
    03:00 -3°C° 0 mm 6 mps 752 mmHg 92%
    04:00 -3°C° 0 mm 6 mps 751 mmHg 90%
    05:00 -4°C° 0 mm 6 mps 751 mmHg 89%
    06:00 -4°C° 0 mm 6 mps 750 mmHg 87%
    07:00 -4°C° 0.1 mm 6 mps 750 mmHg 89%
    08:00 -4°C° 0.1 mm 6 mps 749 mmHg 90%
    09:00 -4°C° 0.1 mm 7 mps 748 mmHg 92%
    10:00 -4°C° 0.2 mm 7 mps 748 mmHg 93%
    11:00 -3°C° 0.2 mm 7 mps 747 mmHg 94%
    12:00 -4°C° 0.2 mm 8 mps 746 mmHg 96%
    13:00 -4°C° 0.3 mm 8 mps 745 mmHg 96%
    14:00 -2°C° 0.3 mm 7 mps 745 mmHg 96%
    15:00 -1°C° 0.3 mm 7 mps 744 mmHg 97%
    16:00 -1°C° 0.2 mm 7 mps 743 mmHg 96%
    17:00 -1°C° 0.2 mm 7 mps 742 mmHg 96%
    18:00 -1°C° 0.2 mm 7 mps 741 mmHg 96%
    19:00 -1°C° 0.2 mm 7 mps 740 mmHg 96%
    20:00 -1°C° 0.2 mm 7 mps 739 mmHg 96%
    21:00 0°C° 0.2 mm 7 mps 739 mmHg 96%
    22:00 0°C° 1 mm 7 mps 737 mmHg 95%
    23:00 0°C° 1 mm 8 mps 736 mmHg 95%

    Day after tomorrow, 22 January, Wednesday

    Time Temperature Precipitation Wind Pressure Humidity
    00:00 0°C° 1 mm 8 mps 735 mmHg 95%
    01:00 0°C° 0.4 mm 8 mps 735 mmHg 91%
    02:00 0°C° 0.4 mm 8 mps 736 mmHg 87%
    03:00 0°C° 0.4 mm 8 mps 736 mmHg 83%
    04:00 -1°C° 0 mm 8 mps 736 mmHg 82%
    05:00 -2°C° 0 mm 7 mps 736 mmHg 81%
    06:00 -3°C° 0 mm 7 mps 737 mmHg 80%
    07:00 -3°C° 0 mm 7 mps 736 mmHg 80%
    08:00 -4°C° 0 mm 6 mps 736 mmHg 80%
    09:00 -4°C° 0 mm 6 mps 736 mmHg 80%
    10:00 -4°C° 0 mm 6 mps 736 mmHg 79%
    11:00 -3°C° 0 mm 6 mps 736 mmHg 78%
    12:00 -3°C° 0 mm 7 mps 736 mmHg 77%
    13:00 -3°C° 0 mm 6 mps 735 mmHg 77%
    14:00 -3°C° 0 mm 6 mps 735 mmHg 76%
    15:00 -2°C° 0 mm 5 mps 734 mmHg 76%
    16:00 -2°C° 0 mm 5 mps 734 mmHg 78%
    17:00 -4°C° 0 mm 5 mps 734 mmHg 81%
    18:00 -3°C° 0 mm 4 mps 733 mmHg 83%
    19:00 -3°C° 0 mm 4 mps 733 mmHg 85%
    20:00 -3°C° 0 mm 4 mps 733 mmHg 86%
    21:00 -3°C° 0 mm 4 mps 733 mmHg 87%
    22:00 -4°C° 0.1 mm 5 mps 733 mmHg 86%
    23:00 -4°C° 0.1 mm 5 mps 733 mmHg 85%

    23 January, Thursday

    Time Temperature Precipitation Wind Pressure Humidity
    00:00 -5°C° 0.1 mm 5 mps 734 mmHg 84%
    01:00 -5°C° 0 mm 5 mps 734 mmHg 84%
    02:00 -5°C° 0 mm 5 mps 734 mmHg 84%
    03:00 -6°C° 0 mm 5 mps 735 mmHg 84%
    04:00 -6°C° 0.1 mm 5 mps 735 mmHg 85%
    05:00 -6°C° 0.1 mm 6 mps 735 mmHg 87%
    06:00 -7°C° 0.1 mm 7 mps 736 mmHg 88%
    07:00 -7°C° 0.1 mm 7 mps 736 mmHg 85%
    08:00 -7°C° 0.1 mm 7 mps 737 mmHg 83%
    09:00 -8°C° 0.1 mm 7 mps 738 mmHg 80%
    10:00 -8°C° 0 mm 8 mps 739 mmHg 76%
    11:00 -10°C° 0 mm 8 mps 740 mmHg 73%
    12:00 -10°C° 0 mm 8 mps 740 mmHg 69%
    13:00 -10°C° 0 mm 8 mps 741 mmHg 67%
    14:00 -10°C° 0 mm 8 mps 741 mmHg 65%
    15:00 -9°C° 0 mm 7 mps 742 mmHg 63%
    16:00 -9°C° 0 mm 6 mps 743 mmHg 65%
    17:00 -10°C° 0 mm 5 mps 743 mmHg 68%
    18:00 -9°C° 0 mm 4 mps 744 mmHg 70%
    19:00 -10°C° 0 mm 5 mps 744 mmHg 71%
    20:00 -10°C° 0 mm 5 mps 745 mmHg 73%
    21:00 -10°C° 0 mm 5 mps 746 mmHg 74%
    22:00 -9°C° 0 mm 4 mps 746 mmHg 76%
    23:00 -9°C° 0 mm 4 mps 747 mmHg 77%

    24 January, Friday

    Time Temperature Precipitation Wind Pressure Humidity
    00:00 -9°C° 0 mm 3 mps 748 mmHg 79%
    01:00 -10°C° 0 mm 4 mps 748 mmHg 80%
    02:00 -10°C° 0 mm 4 mps 748 mmHg 80%
    03:00 -10°C° 0 mm 4 mps 749 mmHg 81%
    04:00 -10°C° 0 mm 4 mps 749 mmHg 81%
    05:00 -10°C° 0 mm 4 mps 749 mmHg 82%
    06:00 -10°C° 0 mm 4 mps 749 mmHg 83%
    07:00 -10°C° 0 mm 4 mps 749 mmHg 82%
    08:00 -10°C° 0 mm 4 mps 748 mmHg 82%
    09:00 -9°C° 0 mm 3 mps 748 mmHg 81%
    10:00 -9°C° 0 mm 4 mps 748 mmHg 82%
    11:00 -8°C° 0 mm 4 mps 748 mmHg 83%
    12:00 -7°C° 0 mm 5 mps 747 mmHg 85%
    13:00 -7°C° 0.2 mm 5 mps 747 mmHg 87%
    14:00 -6°C° 0.2 mm 5 mps 746 mmHg 89%
    15:00 -5°C° 0.2 mm 5 mps 746 mmHg 91%
    16:00 -5°C° 0.1 mm 5 mps 745 mmHg 92%
    17:00 -5°C° 0.1 mm 5 mps 745 mmHg 94%
    18:00 -5°C° 0.1 mm 5 mps 745 mmHg 95%
    19:00 -5°C° 0.1 mm 5 mps 745 mmHg 94%
    20:00 -5°C° 0.1 mm 5 mps 744 mmHg 94%
    21:00 -4°C° 0.1 mm 5 mps 744 mmHg 93%
    22:00 -3°C° 0.1 mm 6 mps 744 mmHg 94%
    23:00 -3°C° 0.1 mm 6 mps 744 mmHg 95%

    25 January, Saturday

    Time Temperature Precipitation Wind Pressure Humidity
    00:00 -2°C° 0.1 mm 6 mps 743 mmHg 95%
    01:00 -2°C° 0.1 mm 6 mps 743 mmHg 95%
    02:00 -2°C° 0.1 mm 6 mps 743 mmHg 95%
    03:00 -2°C° 0.1 mm 6 mps 743 mmHg 95%
    04:00 -2°C° 0 mm 6 mps 743 mmHg 95%
    05:00 -2°C° 0 mm 6 mps 743 mmHg 95%
    06:00 -2°C° 0 mm 6 mps 743 mmHg 95%
    07:00 -2°C° 0 mm 6 mps 743 mmHg 96%
    08:00 -2°C° 0 mm 6 mps 743 mmHg 96%
    09:00 -2°C° 0 mm 6 mps 743 mmHg 96%
    10:00 -2°C° 0 mm 6 mps 744 mmHg 96%
    11:00 -2°C° 0 mm 6 mps 744 mmHg 96%
    12:00 -2°C° 0 mm 6 mps 744 mmHg 96%
    13:00 -1°C° 0 mm 5 mps 744 mmHg 96%
    14:00 -1°C° 0 mm 5 mps 744 mmHg 97%
    15:00 -1°C° 0 mm 5 mps 744 mmHg 97%
    16:00 -1°C° 0 mm 5 mps 745 mmHg 97%
    17:00 -1°C° 0 mm 5 mps 745 mmHg 96%
    18:00 -1°C° 0 mm 4 mps 745 mmHg 96%
    19:00 -1°C° 0 mm 4 mps 745 mmHg 96%
    20:00 -1°C° 0 mm 4 mps 745 mmHg 96%
    21:00 -1°C° 0 mm 4 mps 745 mmHg 97%
    22:00 -1°C° 0 mm 4 mps 745 mmHg 95%
    23:00 -2°C° 0 mm 4 mps 746 mmHg 94%
    Show more